Location: California Mobile Home Park
(33.7461°N, 117.9092°W)
Time: 05:37:37
(UTC+00:00)

Cosmos 1513 Rocket - Pass Details

Date: 29 June 2022
Orbit: 939 x 1008 km, 82.9° (Epoch: 11 August)

Event Time Altitude Azimuth Distance (km) Brightness Sun altitude
Rises 12:00:17 0° 350° (N) 3,606 7.8 -8.5°
Reaches altitude 10° 12:02:47 10° 348° (NNW) 2,658 7.1 -8.1°
Maximum altitude 12:08:47 69° 267° (W) 1,005 4.4 -7.1°
Drops below altitude 10° 12:14:48 10° 185° (S) 2,661 6.4 -6.0°
Sets 12:17:18 0° 183° (S) 3,611 7.1 -5.6°
